| time (UTC) | temp C | wind direction | speed KPH | gust KPH | rain 1hr cm | rain 24hr cm | rain mn cm | humidity % | barometer mb |
| 20260906232111 | 17 | 23 | 3.2 | 4.8 | 0.00 | 0.03 | 0.03 | 76 | 1011.6 |
| 20260906231606 | 17 | 317 | 14.5 | 14.5 | 0.00 | 0.03 | 0.03 | 77 | 1011.5 |
| 20260906231101 | 17 | 307 | 9.7 | 11.3 | 0.00 | 0.03 | 0.03 | 77 | 1011.5 |
| 20260906230600 | 17 | 133 | 3.2 | 3.2 | 0.00 | 0.03 | 0.03 | 78 | 1011.4 |
| 20260906230055 | 17 | 304 | 9.7 | 11.3 | 0.00 | 0.03 | 0.03 | 79 | 1011.4 |
| 20260906225548 | 17 | 316 | 9.7 | 14.5 | 0.00 | 0.03 | 0.03 | 79 | 1011.5 |
| 20260906225044 | 18 | 10 | 8.0 | 11.3 | 0.00 | 0.03 | 0.03 | 78 | 1011.4 |
| 20260906224540 | 18 | 125 | 0.0 | 0.0 | 0.00 | 0.03 | 0.03 | 76 | 1011.6 |
| 20260906224037 | 18 | 125 | 1.6 | 3.2 | 0.00 | 0.03 | 0.03 | 76 | 1011.6 |
| 20260906223532 | 18 | 123 | 0.0 | 0.0 | 0.00 | 0.03 | 0.03 | 77 | 1011.9 |
| 20260906223031 | 18 | 131 | 0.0 | 0.0 | 0.00 | 0.03 | 0.03 | 78 | 1011.7 |
| 20260906222525 | 18 | 131 | 0.0 | 0.0 | 0.00 | 0.03 | 0.03 | 77 | 1011.9 |
| 20260906222023 | 18 | 123 | 0.0 | 1.6 | 0.00 | 0.03 | 0.03 | 77 | 1012.2 |
| 20260906221522 | 18 | 46 | 1.6 | 8.0 | 0.00 | 0.03 | 0.03 | 78 | 1011.7 |
| 20260906221018 | 18 | 355 | 4.8 | 8.0 | 0.00 | 0.03 | 0.03 | 77 | 1011.8 |
| 20260906220517 | 18 | 12 | 1.6 | 8.0 | 0.00 | 0.03 | 0.03 | 77 | 1011.8 |
| 20260906220012 | 18 | 28 | 9.7 | 11.3 | 0.00 | 0.03 | 0.03 | 76 | 1011.7 |
| 20260906215506 | 18 | 50 | 4.8 | 8.0 | 0.00 | 0.03 | 0.03 | 76 | 1011.9 |
| 20260906215004 | 18 | 39 | 8.0 | 11.3 | 0.00 | 0.03 | 0.03 | 75 | 1011.7 |
| 20260906214503 | 18 | 19 | 8.0 | 9.7 | 0.00 | 0.03 | 0.03 | 76 | 1011.6 |
| 20260906213957 | 18 | 21 | 3.2 | 4.8 | 0.00 | 0.03 | 0.03 | 75 | 1011.7 |
| 20260906213451 | 18 | 47 | 8.0 | 9.7 | 0.00 | 0.03 | 0.03 | 74 | 1011.9 |
| 20260906212950 | 18 | 104 | 1.6 | 1.6 | 0.00 | 0.03 | 0.03 | 75 | 1012.0 |
| 20260906212444 | 18 | 52 | 8.0 | 9.7 | 0.00 | 0.03 | 0.03 | 75 | 1011.8 |
| 20260906211939 | 18 | 74 | 4.8 | 4.8 | 0.00 | 0.03 | 0.03 | 74 | 1011.8 |
| 20260906211434 | 17 | 124 | 1.6 | 1.6 | 0.00 | 0.03 | 0.03 | 74 | 1011.8 |
| 20260906210929 | 17 | 35 | 9.7 | 9.7 | 0.00 | 0.03 | 0.03 | 74 | 1011.9 |
| 20260906210425 | 17 | 40 | 4.8 | 4.8 | 0.00 | 0.03 | 0.03 | 75 | 1011.9 |
| 20260906205919 | 17 | 29 | 8.0 | 9.7 | 0.00 | 0.03 | 0.03 | 76 | 1011.6 |
| 20260906205415 | 17 | 32 | 8.0 | 8.0 | 0.00 | 0.03 | 0.03 | 76 | 1011.9 |
| 20260906204911 | 17 | 23 | 8.0 | 9.7 | 0.00 | 0.03 | 0.03 | 75 | 1011.9 |
| 20260906204410 | 17 | 23 | 9.7 | 11.3 | 0.00 | 0.03 | 0.03 | 75 | 1011.9 |
| 20260906203909 | 17 | 18 | 8.0 | 9.7 | 0.00 | 0.03 | 0.03 | 74 | 1012.3 |
| 20260906203404 | 17 | 37 | 4.8 | 8.0 | 0.00 | 0.03 | 0.03 | 74 | 1012.0 |
| 20260906202901 | 17 | 74 | 6.4 | 9.7 | 0.00 | 0.03 | 0.03 | 74 | 1011.9 |
| 20260906202356 | 17 | 355 | 8.0 | 9.7 | 0.00 | 0.03 | 0.03 | 74 | 1012.0 |
| 20260906201855 | 17 | 70 | 8.0 | 11.3 | 0.00 | 0.03 | 0.03 | 75 | 1012.0 |
| 20260906201350 | 17 | 16 | 9.7 | 12.9 | 0.00 | 0.03 | 0.03 | 74 | 1012.0 |
| 20260906200845 | 17 | 52 | 8.0 | 9.7 | 0.00 | 0.03 | 0.03 | 74 | 1012.2 |
| 20260906200341 | 17 | 18 | 8.0 | 9.7 | 0.00 | 0.03 | 0.03 | 75 | 1012.3 |
| 20260906195836 | 17 | 23 | 4.8 | 4.8 | 0.00 | 0.03 | 0.03 | 75 | 1012.3 |
| 20260906195333 | 17 | 46 | 9.7 | 9.7 | 0.00 | 0.03 | 0.03 | 75 | 1012.4 |
| 20260906194828 | 17 | 58 | 4.8 | 8.0 | 0.00 | 0.03 | 0.03 | 75 | 1012.3 |
| 20260906194324 | 17 | 26 | 8.0 | 8.0 | 0.00 | 0.03 | 0.03 | 75 | 1012.4 |
| 20260906193819 | 17 | 53 | 6.4 | 8.0 | 0.00 | 0.03 | 0.03 | 75 | 1012.6 |
| 20260906193314 | 17 | 153 | 3.2 | 4.8 | 0.00 | 0.03 | 0.03 | 75 | 1012.5 |
| 20260906192809 | 17 | 12 | 12.9 | 12.9 | 0.00 | 0.03 | 0.03 | 74 | 1012.2 |
| 20260906192306 | 17 | 10 | 9.7 | 12.9 | 0.00 | 0.03 | 0.03 | 75 | 1012.0 |
| 20260906191803 | 17 | 35 | 11.3 | 12.9 | 0.00 | 0.03 | 0.03 | 74 | 1012.0 |
| 20260906191257 | 17 | 80 | 4.8 | 8.0 | 0.00 | 0.03 | 0.03 | 75 | 1012.5 |
| 20260906190752 | 17 | 41 | 12.9 | 14.5 | 0.00 | 0.03 | 0.03 | 74 | 1012.3 |
| 20260906190246 | 17 | 12 | 14.5 | 14.5 | 0.00 | 0.03 | 0.03 | 75 | 1012.5 |
| 20260906185745 | 17 | 25 | 14.5 | 16.1 | 0.00 | 0.03 | 0.03 | 75 | 1012.5 |
| 20260906185244 | 17 | 32 | 6.4 | 8.0 | 0.00 | 0.03 | 0.03 | 77 | 1012.2 |
| 20260906184739 | 17 | 16 | 17.7 | 17.7 | 0.00 | 0.03 | 0.03 | 77 | 1012.2 |
| 20260906184234 | 17 | 50 | 12.9 | 14.5 | 0.00 | 0.03 | 0.03 | 77 | 1012.7 |
| 20260906183730 | 16 | 44 | 19.3 | 24.1 | 0.00 | 0.03 | 0.03 | 76 | 1012.3 |
| 20260906183226 | 16 | 23 | 22.5 | 25.7 | 0.00 | 0.03 | 0.03 | 77 | 1012.5 |
| 20260906182725 | 16 | 27 | 20.9 | 25.7 | 0.00 | 0.03 | 0.03 | 78 | 1012.6 |
| 20260906182222 | 16 | 46 | 20.9 | 24.1 | 0.00 | 0.03 | 0.03 | 78 | 1012.7 |
| 20260906181717 | 16 | 19 | 14.5 | 20.9 | 0.00 | 0.03 | 0.03 | 80 | 1012.6 |
| 20260906181213 | 16 | 20 | 19.3 | 25.7 | 0.00 | 0.03 | 0.03 | 78 | 1012.8 |
| 20260906180708 | 16 | 25 | 19.3 | 22.5 | 0.00 | 0.03 | 0.03 | 79 | 1012.5 |
| 20260906180203 | 16 | 26 | 20.9 | 27.4 | 0.00 | 0.03 | 0.03 | 81 | 1013.0 |
| 20260906175700 | 15 | 29 | 24.1 | 29.0 | 0.00 | 0.03 | 0.03 | 83 | 1012.5 |
| 20260906175155 | 15 | 33 | 20.9 | 24.1 | 0.00 | 0.03 | 0.03 | 87 | 1012.4 |
| 20260906174654 | 14 | 49 | 14.5 | 20.9 | 0.00 | 0.03 | 0.03 | 92 | 1012.7 |
| 20260906174143 | 13 | 46 | 12.9 | 14.5 | 0.00 | 0.03 | 0.03 | 94 | 1012.9 |
| 20260906173639 | 13 | 34 | 17.7 | 20.9 | 0.00 | 0.03 | 0.03 | 95 | 1013.2 |
| 20260906173134 | 13 | 126 | 1.6 | 1.6 | 0.18 | 0.03 | 0.03 | 94 | 1013.9 |
| 20260906172634 | 13 | 147 | 0.0 | 0.0 | 0.18 | 0.03 | 0.03 | 94 | 1014.1 |
| 20260906172130 | 13 | 211 | 4.8 | 4.8 | 0.00 | 0.00 | 0.00 | 94 | 1014.3 |
| 20260906171629 | 13 | 305 | 8.0 | 9.7 | 0.00 | 0.00 | 0.00 | 93 | 1014.2 |
| 20260906171125 | 13 | 298 | 9.7 | 11.3 | 0.00 | 0.00 | 0.00 | 92 | 1014.3 |
| 20260906170621 | 13 | 319 | 11.3 | 12.9 | 0.00 | 0.00 | 0.00 | 92 | 1014.3 |
| 20260906170120 | 13 | 247 | 8.0 | 9.7 | 0.00 | 0.00 | 0.00 | 92 | 1014.3 |
| 20260906165616 | 13 | 302 | 4.8 | 4.8 | 0.00 | 0.00 | 0.00 | 92 | 1014.5 |
| 20260906165112 | 13 | 252 | 4.8 | 4.8 | 0.00 | 0.00 | 0.00 | 92 | 1014.5 |
| 20260906164610 | 13 | 297 | 8.0 | 9.7 | 0.00 | 0.00 | 0.00 | 92 | 1014.6 |
| 20260906164106 | 13 | 127 | 4.8 | 8.0 | 0.00 | 0.00 | 0.00 | 92 | 1014.5 |
| 20260906163602 | 13 | 133 | 3.2 | 3.2 | 0.00 | 0.00 | 0.00 | 92 | 1014.5 |
| 20260906163057 | 13 | 318 | 6.4 | 8.0 | 0.00 | 0.00 | 0.00 | 92 | 1014.5 |
| 20260906162554 | 13 | 127 | 0.0 | 1.6 | 0.00 | 0.00 | 0.00 | 92 | 1014.3 |
| 20260906162049 | 13 | 133 | 0.0 | 0.0 | 0.00 | 0.00 | 0.00 | 92 | 1014.3 |
| 20260906161544 | 13 | 126 | 0.0 | 0.0 | 0.00 | 0.00 | 0.00 | 93 | 1014.5 |
| 20260906161043 | 13 | 125 | 1.6 | 1.6 | 0.00 | 0.00 | 0.00 | 93 | 1014.1 |
| 20260906160542 | 13 | 133 | 0.0 | 1.6 | 0.00 | 0.00 | 0.00 | 93 | 1014.1 |
| 20260906160041 | 12 | 124 | 0.0 | 0.0 | 0.00 | 0.00 | 0.00 | 93 | 1014.3 |
| 20260906155538 | 12 | 131 | 0.0 | 1.6 | 0.00 | 0.00 | 0.00 | 93 | 1014.2 |
| 20260906155034 | 12 | 79 | 3.2 | 4.8 | 0.00 | 0.00 | 0.00 | 94 | 1014.5 |
| 20260906154529 | 12 | 133 | 3.2 | 4.8 | 0.00 | 0.00 | 0.00 | 94 | 1014.5 |
| 20260906154028 | 12 | 130 | 3.2 | 4.8 | 0.00 | 0.00 | 0.00 | 94 | 1014.6 |
| 20260906153527 | 12 | 135 | 3.2 | 3.2 | 0.00 | 0.00 | 0.00 | 93 | 1014.6 |
| 20260906153017 | 12 | 151 | 3.2 | 3.2 | 0.00 | 0.00 | 0.00 | 93 | 1014.7 |
| 20260906152511 | 12 | 314 | 6.4 | 9.7 | 0.00 | 0.00 | 0.00 | 93 | 1014.7 |
| 20260906152010 | 12 | 324 | 14.5 | 17.7 | 0.00 | 0.00 | 0.00 | 92 | 1014.9 |
| 20260906151506 | 12 | 141 | 9.7 | 12.9 | 0.00 | 0.00 | 0.00 | 91 | 1015.2 |
| 20260906151001 | 12 | 186 | 11.3 | 22.5 | 0.00 | 0.00 | 0.00 | 90 | 1015.0 |
| 20260906150456 | 13 | 181 | 11.3 | 16.1 | 0.00 | 0.00 | 0.00 | 90 | 1015.2 |
| 20260906145956 | 13 | 304 | 11.3 | 14.5 | 0.00 | 0.00 | 0.00 | 90 | 1015.0 |
| 20260906145455 | 13 | 250 | 8.0 | 11.3 | 0.00 | 0.00 | 0.00 | 90 | 1015.3 |
| 20260906144949 | 13 | 132 | 1.6 | 1.6 | 0.00 | 0.00 | 0.00 | 89 | 1014.7 |
| 20260906144444 | 13 | 6 | 8.0 | 17.7 | 0.00 | 0.00 | 0.00 | 89 | 1015.2 |
| 20260906143940 | 14 | 289 | 14.5 | 16.1 | 0.00 | 0.00 | 0.00 | 89 | 1015.5 |
| 20260906143435 | 15 | 240 | 14.5 | 16.1 | 0.00 | 0.00 | 0.00 | 89 | 1015.4 |
| 20260906142931 | 15 | 265 | 6.4 | 9.7 | 0.00 | 0.00 | 0.00 | 90 | 1015.3 |
| 20260906142430 | 15 | 269 | 8.0 | 8.0 | 0.00 | 0.00 | 0.00 | 89 | 1015.0 |
| 20260906141926 | 15 | 166 | 1.6 | 1.6 | 0.00 | 0.00 | 0.00 | 89 | 1014.9 |
| 20260906141420 | 15 | 127 | 0.0 | 0.0 | 0.00 | 0.00 | 0.00 | 90 | 1014.7 |
| 20260906140914 | 15 | 66 | 3.2 | 3.2 | 0.00 | 0.00 | 0.00 | 90 | 1014.5 |
| 20260906140408 | 15 | 102 | 1.6 | 1.6 | 0.00 | 0.00 | 0.00 | 90 | 1014.6 |
| 20260906135906 | 15 | 129 | 0.0 | 0.0 | 0.00 | 0.00 | 0.00 | 90 | 1014.9 |
| 20260906135400 | 15 | 126 | 0.0 | 1.6 | 0.00 | 0.00 | 0.00 | 90 | 1014.9 |
| 20260906134856 | 15 | 83 | 3.2 | 3.2 | 0.00 | 0.00 | 0.00 | 90 | 1015.0 |
| 20260906134351 | 15 | 118 | 1.6 | 1.6 | 0.00 | 0.00 | 0.00 | 90 | 1014.6 |
| 20260906133847 | 14 | 97 | 3.2 | 4.8 | 0.00 | 0.00 | 0.00 | 90 | 1014.8 |
| 20260906133342 | 14 | 44 | 8.0 | 8.0 | 0.00 | 0.00 | 0.00 | 90 | 1014.5 |
| 20260906132838 | 14 | 31 | 4.8 | 4.8 | 0.00 | 0.00 | 0.00 | 90 | 1014.3 |
| 20260906132332 | 14 | 126 | 0.0 | 1.6 | 0.00 | 0.00 | 0.00 | 91 | 1014.3 |
| 20260906131828 | 14 | 117 | 6.4 | 11.3 | 0.00 | 0.00 | 0.00 | 91 | 1014.5 |
| 20260906131323 | 13 | 310 | 11.3 | 12.9 | 0.00 | 0.00 | 0.00 | 91 | 1014.6 |
| 20260906130819 | 14 | 270 | 9.7 | 11.3 | 0.00 | 0.00 | 0.00 | 91 | 1014.8 |
| 20260906130319 | 13 | 127 | 0.0 | 0.0 | 0.00 | 0.00 | 0.00 | 91 | 1014.5 |
| 20260906125818 | 13 | 35 | 4.8 | 4.8 | 0.00 | 0.00 | 0.00 | 91 | 1014.3 |
| 20260906125315 | 13 | 47 | 9.7 | 11.3 | 0.00 | 0.00 | 0.00 | 91 | 1014.6 |
| 20260906124810 | 13 | 57 | 6.4 | 8.0 | 0.00 | 0.00 | 0.00 | 91 | 1014.6 |
| 20260906124306 | 13 | 38 | 6.4 | 8.0 | 0.00 | 0.00 | 0.00 | 91 | 1014.8 |
| 20260906123805 | 13 | 17 | 11.3 | 14.5 | 0.00 | 0.00 | 0.00 | 91 | 1014.6 |
| 20260906123300 | 13 | 1 | 6.4 | 9.7 | 0.00 | 0.00 | 0.00 | 91 | 1014.7 |
| 20260906122800 | 13 | 17 | 8.0 | 11.3 | 0.00 | 0.00 | 0.00 | 91 | 1014.6 |
| 20260906122255 | 13 | 3 | 8.0 | 12.9 | 0.00 | 0.00 | 0.00 | 91 | 1014.7 |
| 20260906121752 | 13 | 6 | 8.0 | 11.3 | 0.00 | 0.00 | 0.00 | 91 | 1014.2 |
| 20260906121248 | 13 | 342 | 8.0 | 11.3 | 0.00 | 0.00 | 0.00 | 91 | 1014.3 |
| 20260906120743 | 13 | 24 | 6.4 | 9.7 | 0.00 | 0.00 | 0.00 | 92 | 1014.3 |
| 20260906120240 | 13 | 12 | 6.4 | 9.7 | 0.00 | 0.00 | 0.00 | 92 | 1014.2 |
| 20260906115735 | 13 | 134 | 1.6 | 3.2 | 0.00 | 0.00 | 0.00 | 92 | 1014.5 |
| 20260906115230 | 13 | 145 | 1.6 | 3.2 | 0.00 | 0.00 | 0.00 | 92 | 1014.5 |
| 20260906114729 | 13 | 127 | 1.6 | 3.2 | 0.00 | 0.00 | 0.00 | 92 | 1014.5 |
| 20260906114224 | 13 | 142 | 1.6 | 3.2 | 0.00 | 0.00 | 0.00 | 91 | 1014.3 |
| 20260906113720 | 13 | 336 | 6.4 | 9.7 | 0.00 | 0.00 | 0.00 | 91 | 1014.8 |
| 20260906113219 | 13 | 88 | 6.4 | 8.0 | 0.00 | 0.00 | 0.00 | 91 | 1014.7 |
| 20260906112718 | 13 | 11 | 3.2 | 4.8 | 0.00 | 0.00 | 0.00 | 90 | 1014.8 |
| 20260906112216 | 13 | 97 | 6.4 | 9.7 | 0.00 | 0.00 | 0.00 | 90 | 1014.6 |
| 20260906111715 | 13 | 51 | 8.0 | 9.7 | 0.00 | 0.00 | 0.00 | 90 | 1014.7 |
| 20260906111209 | 13 | 103 | 4.8 | 4.8 | 0.00 | 0.00 | 0.00 | 89 | 1014.7 |
| 20260906110704 | 13 | 4 | 8.0 | 12.9 | 0.00 | 0.00 | 0.00 | 90 | 1014.8 |
| 20260906110200 | 13 | 17 | 6.4 | 8.0 | 0.00 | 0.00 | 0.00 | 89 | 1014.6 |
| 20260906105653 | 13 | 45 | 6.4 | 11.3 | 0.00 | 0.00 | 0.00 | 89 | 1014.6 |
| 20260906105150 | 13 | 35 | 11.3 | 12.9 | 0.00 | 0.00 | 0.00 | 89 | 1014.7 |
| 20260906104649 | 13 | 0 | 6.4 | 9.7 | 0.00 | 0.00 | 0.00 | 89 | 1014.8 |
| 20260906104143 | 13 | 11 | 4.8 | 8.0 | 0.00 | 0.00 | 0.00 | 89 | 1014.7 |
| 20260906103641 | 13 | 38 | 9.7 | 12.9 | 0.00 | 0.00 | 0.00 | 89 | 1014.8 |
| 20260906103137 | 13 | 27 | 11.3 | 12.9 | 0.00 | 0.00 | 0.00 | 89 | 1014.9 |
| 20260906102631 | 13 | 352 | 14.5 | 17.7 | 0.00 | 0.00 | 0.00 | 89 | 1014.9 |
| 20260906102125 | 13 | 93 | 11.3 | 12.9 | 0.00 | 0.00 | 0.00 | 89 | 1014.9 |
| 20260906101620 | 13 | 50 | 12.9 | 14.5 | 0.00 | 0.00 | 0.00 | 89 | 1014.9 |
| 20260906101115 | 13 | 359 | 12.9 | 14.5 | 0.00 | 0.00 | 0.00 | 89 | 1014.9 |
| 20260906100611 | 13 | 20 | 4.8 | 8.0 | 0.00 | 0.00 | 0.00 | 89 | 1015.0 |
| 20260906100110 | 13 | 21 | 6.4 | 11.3 | 0.00 | 0.00 | 0.00 | 89 | 1015.1 |
| 20260906095610 | 13 | 183 | 6.4 | 8.0 | 0.00 | 0.00 | 0.00 | 88 | 1014.9 |
| 20260906095106 | 13 | 154 | 4.8 | 9.7 | 0.00 | 0.00 | 0.00 | 88 | 1014.9 |
| 20260906094604 | 13 | 121 | 4.8 | 9.7 | 0.00 | 0.00 | 0.00 | 88 | 1014.9 |
| 20260906094101 | 13 | 105 | 3.2 | 4.8 | 0.00 | 0.00 | 0.00 | 88 | 1014.8 |
| 20260906093556 | 14 | 18 | 6.4 | 9.7 | 0.00 | 0.00 | 0.00 | 88 | 1014.9 |
| 20260906093051 | 14 | 265 | 8.0 | 11.3 | 0.00 | 0.00 | 0.00 | 88 | 1014.6 |
| 20260906092546 | 15 | 22 | 8.0 | 14.5 | 0.00 | 0.00 | 0.00 | 87 | 1014.8 |
| 20260906092041 | 15 | 16 | 12.9 | 17.7 | 0.00 | 0.00 | 0.00 | 86 | 1014.8 |
| 20260906091537 | 15 | 1 | 14.5 | 24.1 | 0.00 | 0.00 | 0.00 | 86 | 1014.8 |
| 20260906091033 | 15 | 12 | 8.0 | 11.3 | 0.00 | 0.00 | 0.00 | 86 | 1015.0 |
| 20260906090528 | 14 | 258 | 11.3 | 14.5 | 0.00 | 0.00 | 0.00 | 87 | 1015.0 |
| 20260906090023 | 13 | 320 | 11.3 | 14.5 | 0.00 | 0.00 | 0.00 | 89 | 1014.9 |
| 20260906085522 | 14 | 126 | 1.6 | 1.6 | 0.00 | 0.00 | 0.00 | 90 | 1015.1 |
| 20260906085021 | 14 | 136 | 1.6 | 3.2 | 0.00 | 0.00 | 0.00 | 89 | 1015.2 |
| 20260906084516 | 14 | 109 | 1.6 | 1.6 | 0.00 | 0.00 | 0.00 | 89 | 1015.1 |
| 20260906084015 | 14 | 196 | 1.6 | 3.2 | 0.00 | 0.00 | 0.00 | 88 | 1015.4 |
| 20260906083511 | 14 | 104 | 3.2 | 8.0 | 0.00 | 0.00 | 0.00 | 87 | 1015.7 |
| 20260906083010 | 14 | 30 | 9.7 | 14.5 | 0.00 | 0.00 | 0.00 | 87 | 1015.5 |
| 20260906082505 | 14 | 13 | 14.5 | 22.5 | 0.00 | 0.00 | 0.00 | 87 | 1015.2 |
| 20260906082001 | 14 | 6 | 11.3 | 14.5 | 0.00 | 0.00 | 0.00 | 87 | 1015.8 |
| 20260906081456 | 14 | 147 | 6.4 | 9.7 | 0.00 | 0.00 | 0.00 | 87 | 1015.9 |
| 20260906080952 | 14 | 21 | 8.0 | 11.3 | 0.00 | 0.00 | 0.00 | 87 | 1015.5 |
| 20260906080448 | 14 | 139 | 1.6 | 1.6 | 0.00 | 0.00 | 0.00 | 87 | 1015.5 |
| 20260906075943 | 14 | 144 | 4.8 | 8.0 | 0.00 | 0.00 | 0.00 | 88 | 1015.5 |
| 20260906075438 | 13 | 345 | 1.6 | 3.2 | 0.00 | 0.00 | 0.00 | 88 | 1015.5 |
| 20260906074933 | 13 | 56 | 9.7 | 12.9 | 0.00 | 0.00 | 0.00 | 89 | 1015.5 |
| 20260906074427 | 13 | 85 | 4.8 | 4.8 | 0.00 | 0.00 | 0.00 | 89 | 1015.7 |
| 20260906073926 | 13 | 347 | 3.2 | 8.0 | 0.00 | 0.00 | 0.00 | 89 | 1015.7 |
| 20260906073421 | 13 | 276 | 6.4 | 8.0 | 0.00 | 0.00 | 0.00 | 90 | 1015.5 |
| 20260906072917 | 13 | 267 | 4.8 | 4.8 | 0.00 | 0.00 | 0.00 | 90 | 1015.7 |
| 20260906072412 | 13 | 80 | 4.8 | 4.8 | 0.00 | 0.00 | 0.00 | 91 | 1015.1 |
| 20260906071908 | 13 | 113 | 0.0 | 0.0 | 0.00 | 0.00 | 0.00 | 91 | 1015.7 |
| 20260906071404 | 13 | 129 | 0.0 | 0.0 | 0.00 | 0.00 | 0.00 | 91 | 1015.9 |
| 20260906070900 | 13 | 127 | 0.0 | 0.0 | 0.00 | 0.00 | 0.00 | 90 | 1015.7 |
| 20260906070355 | 13 | 117 | 0.0 | 1.6 | 0.00 | 0.00 | 0.00 | 90 | 1016.2 |
| 20260906065851 | 13 | 358 | 4.8 | 4.8 | 0.00 | 0.00 | 0.00 | 89 | 1015.7 |
| 20260906065345 | 13 | 13 | 4.8 | 4.8 | 0.00 | 0.00 | 0.00 | 89 | 1015.7 |
| 20260906064840 | 13 | 15 | 8.0 | 11.3 | 0.00 | 0.00 | 0.00 | 89 | 1015.8 |
| 20260906064337 | 13 | 127 | 0.0 | 1.6 | 0.00 | 0.00 | 0.00 | 89 | 1016.4 |
| 20260906063837 | 13 | 135 | 3.2 | 4.8 | 0.00 | 0.00 | 0.00 | 88 | 1016.3 |
| 20260906063332 | 13 | 284 | 6.4 | 8.0 | 0.00 | 0.00 | 0.00 | 88 | 1016.5 |
| 20260906062827 | 14 | 230 | 8.0 | 9.7 | 0.00 | 0.00 | 0.00 | 89 | 1016.9 |
| 20260906062326 | 14 | 291 | 9.7 | 11.3 | 0.00 | 0.00 | 0.00 | 88 | 1016.6 |
| 20260906061822 | 13 | 102 | 1.6 | 1.6 | 0.00 | 0.00 | 0.00 | 89 | 1016.5 |
| 20260906061318 | 13 | 4 | 4.8 | 11.3 | 0.00 | 0.00 | 0.00 | 89 | 1016.3 |
| 20260906060813 | 13 | 20 | 1.6 | 3.2 | 0.00 | 0.00 | 0.00 | 89 | 1016.0 |
| 20260906060311 | 13 | 125 | 1.6 | 3.2 | 0.00 | 0.00 | 0.00 | 89 | 1016.1 |
| 20260906055806 | 13 | 354 | 1.6 | 1.6 | 0.00 | 0.28 | 0.28 | 90 | 1016.3 |
| 20260906055301 | 13 | 95 | 1.6 | 1.6 | 0.00 | 0.28 | 0.28 | 89 | 1016.2 |
| 20260906054756 | 13 | 134 | 0.0 | 1.6 | 0.00 | 0.28 | 0.28 | 89 | 1016.2 |
| 20260906054252 | 13 | 279 | 1.6 | 3.2 | 0.00 | 0.28 | 0.28 | 88 | 1016.1 |
| 20260906053748 | 13 | 21 | 6.4 | 14.5 | 0.00 | 0.28 | 0.28 | 87 | 1016.2 |
| 20260906053244 | 13 | 357 | 16.1 | 20.9 | 0.00 | 0.28 | 0.28 | 87 | 1015.9 |
| 20260906052738 | 13 | 28 | 11.3 | 16.1 | 0.00 | 0.28 | 0.28 | 87 | 1015.7 |
| 20260906052235 | 13 | 2 | 16.1 | 22.5 | 0.00 | 0.28 | 0.28 | 87 | 1015.8 |
| 20260906051732 | 13 | 355 | 8.0 | 11.3 | 0.00 | 0.28 | 0.28 | 87 | 1015.5 |
| 20260906051231 | 13 | 10 | 16.1 | 17.7 | 0.00 | 0.28 | 0.28 | 87 | 1015.7 |
| 20260906050727 | 13 | 22 | 17.7 | 22.5 | 0.00 | 0.28 | 0.28 | 87 | 1015.7 |
| 20260906050222 | 13 | 28 | 9.7 | 12.9 | 0.00 | 0.28 | 0.28 | 87 | 1015.8 |
| 20260906045720 | 13 | 352 | 12.9 | 17.7 | 0.00 | 0.28 | 0.28 | 88 | 1015.7 |
| 20260906045216 | 13 | 51 | 8.0 | 11.3 | 0.43 | 0.28 | 0.28 | 87 | 1015.7 |
| 20260906044711 | 14 | 14 | 11.3 | 16.1 | 0.43 | 0.28 | 0.28 | 86 | 1015.7 |
| 20260906044206 | 14 | 67 | 16.1 | 22.5 | 0.13 | 0.23 | 0.23 | 83 | 1015.8 |
| 20260906043702 | 14 | 358 | 11.3 | 16.1 | 0.00 | 0.20 | 0.20 | 85 | 1015.9 |
| 20260906043158 | 14 | 138 | 0.0 | 0.0 | 0.00 | 0.20 | 0.20 | 85 | 1016.3 |
| 20260906042657 | 14 | 163 | 4.8 | 8.0 | 0.00 | 0.20 | 0.20 | 84 | 1016.0 |
| 20260906042151 | 14 | 6 | 12.9 | 22.5 | 0.00 | 0.20 | 0.20 | 85 | 1015.3 |
| 20260906041647 | 14 | 346 | 8.0 | 14.5 | 0.00 | 0.20 | 0.20 | 84 | 1015.1 |
| 20260906041142 | 14 | 333 | 17.7 | 20.9 | 0.00 | 0.20 | 0.20 | 83 | 1015.0 |
| 20260906040637 | 14 | 354 | 14.5 | 25.7 | 0.00 | 0.20 | 0.20 | 83 | 1014.7 |
| 20260906040133 | 14 | 17 | 11.3 | 20.9 | 0.00 | 0.20 | 0.20 | 84 | 1014.9 |
| 20260906035628 | 14 | 354 | 11.3 | 17.7 | 0.00 | 0.20 | 0.20 | 85 | 1014.8 |
| 20260906035124 | 14 | 69 | 12.9 | 20.9 | 0.00 | 0.20 | 0.20 | 84 | 1014.8 |
| 20260906034623 | 14 | 144 | 8.0 | 11.3 | 0.00 | 0.20 | 0.20 | 85 | 1015.1 |
| 20260906034118 | 14 | 348 | 9.7 | 14.5 | 0.00 | 0.20 | 0.20 | 84 | 1015.2 |
| 20260906033614 | 14 | 12 | 8.0 | 14.5 | 0.00 | 0.20 | 0.20 | 85 | 1015.2 |
| 20260906033108 | 13 | 184 | 11.3 | 17.7 | 0.00 | 0.20 | 0.20 | 85 | 1015.1 |
| 20260906032605 | 14 | 135 | 8.0 | 17.7 | 0.00 | 0.20 | 0.20 | 85 | 1015.2 |
| 20260906032100 | 14 | 355 | 4.8 | 14.5 | 0.79 | 0.20 | 0.20 | 85 | 1015.8 |
| 20260906031555 | 15 | 317 | 4.8 | 8.0 | 0.79 | 0.20 | 0.20 | 82 | 1015.4 |
| 20260906031051 | 16 | 40 | 6.4 | 9.7 | 0.00 | 0.08 | 0.08 | 69 | 1015.5 |
| 20260906030550 | 16 | 132 | 1.6 | 3.2 | 0.00 | 0.08 | 0.08 | 68 | 1016.5 |
| 20260906030049 | 16 | 14 | 8.0 | 11.3 | 0.00 | 0.08 | 0.08 | 68 | 1015.5 |
| 20260906025544 | 16 | 11 | 16.1 | 20.9 | 0.00 | 0.08 | 0.08 | 68 | 1014.6 |
| 20260906025042 | 16 | 11 | 20.9 | 27.4 | 0.00 | 0.08 | 0.08 | 68 | 1014.1 |
| 20260906024537 | 16 | 12 | 24.1 | 35.4 | 0.00 | 0.08 | 0.08 | 68 | 1014.0 |
| 20260906024032 | 16 | 16 | 30.6 | 35.4 | 0.00 | 0.08 | 0.08 | 68 | 1013.7 |
| 20260906023528 | 16 | 8 | 24.1 | 32.2 | 0.00 | 0.08 | 0.08 | 68 | 1013.9 |
| 20260906023022 | 16 | 6 | 20.9 | 22.5 | 0.00 | 0.08 | 0.08 | 68 | 1014.0 |
| 20260906022518 | 16 | 18 | 27.4 | 32.2 | 0.00 | 0.08 | 0.08 | 67 | 1013.7 |
| 20260906022013 | 17 | 25 | 29.0 | 32.2 | 0.00 | 0.08 | 0.08 | 67 | 1013.7 |
| 20260906021509 | 17 | 12 | 20.9 | 22.5 | 0.00 | 0.08 | 0.08 | 66 | 1013.8 |
| 20260906021003 | 17 | 14 | 24.1 | 29.0 | 0.00 | 0.08 | 0.08 | 66 | 1013.8 |
| 20260906020502 | 17 | 4 | 24.1 | 29.0 | 0.00 | 0.08 | 0.08 | 66 | 1013.7 |
| 20260906020001 | 17 | 21 | 24.1 | 27.4 | 0.00 | 0.08 | 0.08 | 65 | 1013.7 |
| 20260906015501 | 17 | 11 | 16.1 | 17.7 | 0.00 | 0.08 | 0.08 | 64 | 1013.8 |
| 20260906015001 | 18 | 12 | 22.5 | 24.1 | 0.00 | 0.08 | 0.08 | 63 | 1013.6 |
| 20260906014455 | 18 | 19 | 20.9 | 22.5 | 0.00 | 0.08 | 0.08 | 63 | 1013.6 |
| 20260906013951 | 18 | 357 | 17.7 | 20.9 | 0.00 | 0.08 | 0.08 | 62 | 1013.8 |
| 20260906013447 | 18 | 11 | 17.7 | 20.9 | 0.00 | 0.08 | 0.08 | 61 | 1013.5 |
| 20260906012942 | 18 | 358 | 8.0 | 12.9 | 0.00 | 0.08 | 0.08 | 60 | 1013.7 |
| 20260906012437 | 18 | 24 | 12.9 | 14.5 | 0.00 | 0.08 | 0.08 | 59 | 1013.6 |
| 20260906011936 | 19 | 4 | 12.9 | 16.1 | 0.00 | 0.08 | 0.08 | 59 | 1013.8 |
| 20260906011432 | 19 | 14 | 11.3 | 14.5 | 0.00 | 0.08 | 0.08 | 58 | 1013.7 |
| 20260906010927 | 19 | 25 | 16.1 | 17.7 | 0.00 | 0.08 | 0.08 | 58 | 1013.7 |
| 20260906010422 | 19 | 2 | 17.7 | 20.9 | 0.00 | 0.08 | 0.08 | 58 | 1013.9 |
| 20260906005918 | 20 | 40 | 19.3 | 22.5 | 0.00 | 0.08 | 0.08 | 56 | 1013.9 |
| 20260906005418 | 20 | 8 | 22.5 | 25.7 | 0.00 | 0.08 | 0.08 | 56 | 1013.7 |
| 20260906004916 | 20 | 25 | 19.3 | 22.5 | 0.00 | 0.08 | 0.08 | 55 | 1013.8 |
| 20260906004411 | 20 | 5 | 17.7 | 20.9 | 0.00 | 0.08 | 0.08 | 55 | 1013.5 |
| 20260906003907 | 20 | 2 | 20.9 | 24.1 | 0.00 | 0.08 | 0.08 | 54 | 1013.8 |
| 20260906003402 | 20 | 33 | 14.5 | 17.7 | 0.00 | 0.08 | 0.08 | 54 | 1013.6 |
| 20260906002857 | 21 | 3 | 16.1 | 17.7 | 0.00 | 0.08 | 0.08 | 54 | 1013.6 |
| 20260906002356 | 21 | 4 | 16.1 | 17.7 | 0.00 | 0.08 | 0.08 | 52 | 1013.9 |
| 20260906001852 | 21 | 351 | 20.9 | 24.1 | 0.00 | 0.08 | 0.08 | 50 | 1013.8 |
| 20260906001348 | 21 | 45 | 16.1 | 22.5 | 0.00 | 0.08 | 0.08 | 50 | 1013.8 |
| 20260906000842 | 22 | 24 | 12.9 | 14.5 | 0.00 | 0.08 | 0.08 | 46 | 1013.9 |
| 20260906000337 | 22 | 33 | 16.1 | 20.9 | 0.00 | 0.08 | 0.08 | 47 | 1013.8 |
| 20260905235837 | 22 | 358 | 20.9 | 24.1 | 0.00 | 0.08 | 0.08 | 47 | 1013.7 |
| 20260905235331 | 22 | 26 | 12.9 | 14.5 | 0.00 | 0.08 | 0.08 | 47 | 1013.6 |
| 20260905234827 | 22 | 37 | 6.4 | 9.7 | 0.00 | 0.08 | 0.08 | 46 | 1013.8 |
| 20260905234322 | 22 | 25 | 11.3 | 12.9 | 0.00 | 0.08 | 0.08 | 46 | 1014.0 |
| 20260905233817 | 22 | 46 | 8.0 | 9.7 | 0.00 | 0.08 | 0.08 | 46 | 1013.9 |
| 20260905233312 | 22 | 41 | 17.7 | 20.9 | 0.00 | 0.08 | 0.08 | 46 | 1014.1 |
| 20260905232811 | 22 | 41 | 20.9 | 22.5 | 0.00 | 0.08 | 0.08 | 47 | 1014.2 |